Current weather by "City, St" or "zip code"  
 

Current Conditions: Kansas City, Kansas City Downtown Airport, MO

Fair


55.0 F

Last Updated on Oct 21 2021, 12:54 pm CDT
Humidity: 57%
Wind Speed: W 8.1 G 16.1 mph
Barometer 30.18 in
Dewpoint: 39.9 F
Visibility: 10.00 mi
Precip: --
Heat Index: NA
Wind Chill: 53 F
Current conditions at:

Kansas City, Kansas City Downtown Airport, MO (KMKC)

Lat: 39.12083 Lon: 94.59694

Local Radar Image active severe weather and emergency alerts image image weather storm and storm spotter reports image weather observation monitoring service image
Local
Radar
Active
Alerts
Storm Reports Obs
Monitoring

Sign-up For Email & Text Message Weather Alert Notification Services



Advertise Here

Observation History for Kansas City, Kansas City Downtown Airport, MO


Time Wind
(mph)
Vis
(mi)
Weather Precip (in) Temperature (F) Relative
Humidity
Wind
Chill
(F)
Heat
Index
(F)
Pressure
Air Dwpt altimeter
(in)
sea level
(mb)
Rmks
12:54 pm CDT W 8.1 G 16.1 10.00 Fair -- 55.0 39.9 57% 53 NA 30.18 1022.0
11:54 am CDT NW 9.2 10.00 Fair -- 53.0 39.0 59% 50 NA 30.20 1022.5
10:54 am CDT NW 11.5 10.00 Fair -- 50.0 37.9 63% 46 NA 30.18 1022.0
9:54 am CDT NW 12.7 G 18.4 10.00 A Few Clouds -- 49.0 37.9 66% 44 NA 30.17 1021.8
8:54 am CDT W 10.4 G 19.6 10.00 Fair -- 46.0 37.9 73% 41 NA 30.16 1021.4
7:54 am CDT W 6.9 10.00 A Few Clouds -- 44.0 37.0 76% 40 NA 30.14 1020.7
6:54 am CDT W 10.4 10.00 A Few Clouds -- 44.0 37.0 76% 38 NA 30.12 1020.0
5:54 am CDT W 8.1 10.00 Overcast -- 46.0 37.0 71% 42 NA 30.11 1019.5
4:54 am CDT W 9.2 G 19.6 10.00 Fair -- 46.0 37.0 71% 41 NA 30.10 1019.0
3:54 am CDT W 9.2 10.00 Fair -- 46.0 37.0 71% 41 NA 30.09 1018.9
2:54 am CDT W 8.1 G 18.4 10.00 Fair -- 48.0 37.9 68% 44 NA 30.09 1018.6
1:54 am CDT W 10.4 10.00 Fair -- 49.0 39.0 69% 45 NA 30.09 1018.7
12:54 am CDT W 6.9 10.00 Fair -- 50.0 39.0 66% 47 NA 30.08 1018.2
11:54 pm CDT W 6.9 10.00 Fair -- 52.0 39.9 64% 50 NA 30.07 1018.1
10:54 pm CDT NW 6.9 10.00 Fair -- 52.0 41.0 66% 50 NA 30.08 1018.2
9:54 pm CDT NW 10.4 10.00 Fair -- 55.0 41.0 59% 52 NA 30.07 1017.8
8:54 pm CDT W 11.5 10.00 Fair -- 57.0 42.1 58% 54 NA 30.05 1017.2
7:54 pm CDT W 10.4 10.00 Fair -- 59.0 43.0 56% 57 NA 30.03 1016.7
6:54 pm CDT W 6.9 10.00 Fair -- 62.0 43.0 50% 62 NA 30.00 1015.6
5:54 pm CDT W 13.8 10.00 Fair -- 65.0 44.1 47% NA NA 29.99 1015.3
4:54 pm CDT W 11.5 G 19.6 10.00 Fair -- 68.0 46.9 47% NA NA 29.98 1014.9
3:54 pm CDT W 13.8 G 21.9 10.00 Fair -- 68.0 46.9 47% NA NA 29.98 1014.8
2:54 pm CDT W 11.5 10.00 Partly Cloudy -- 68.0 51.1 55% NA NA 29.98 1014.7
1:54 pm CDT W 13.8 10.00 A Few Clouds -- 66.0 52.0 61% NA NA 30.00 1015.5

Regional Weather Observation


Kansas City, Kansas City Downtown Airport, MO (KMKC)

Fair
55.0 F

Mosby Midwest National Air Center Airport, MO (KGPH)

Fair
54.0 F

St. Joseph, Rosecrans Memorial Airport, MO (KSTJ)

Fair
54.0 F

Lawrence, Lawrence Municipal Airport, KS (KLWC)

Fair
56.0 F

Cameron Memorial Airport, MO (KEZZ)

Partly Cloudy
53.0 F

Topeka, Philip Billard Municipal Airport, KS (KTOP)

Fair
56.0 F

Advertise Here


Advertise Here